Weather History for Whiteman AFB, MO

Change the Weather History Date:

Monday, July 22, 2013

  Actual Average Record
Temperature  
Mean Temperature 80 °F -  
Max Temperature 93 °F 87 °F 103 °F (2012)
Min Temperature 68 °F 68 °F 60 °F (2000)
Cooling Degree Days 16    
Growing Degree Days 30 (Base 50)    
Moisture  
Dew Point 71 °F    
Average Humidity 76    
Maximum Humidity 100    
Minimum Humidity 42    
Precipitation  
Precipitation 0.00 in - - ()
Sea Level Pressure  
Sea Level Pressure 29.82 in    
Wind  
Wind Speed 6 mph (SSW)    
Max Wind Speed 16 mph    
Max Gust Speed -    
Visibility 10 miles    
Events      
Averages and records for this station are not official NWS values.
T = Trace of Precipitation, MM = Missing Value Source: NWS Daily Summary

Daily Weather History Graph

Daily Weather History Graph

Search for Another Location

Airport:

Trip Planner

Search our weather history database for the weather conditions in past years. The results will help you decide how hot, cold, wet, or windy it might be!

Date:

Astronomy

Jul. 22, 2013 Rise Set
Actual Time 6:07 AM CDT 8:33 PM CDT
Civil Twilight 5:36 AM CDT 9:03 PM CDT
Nautical Twilight 4:59 AM CDT 9:41 PM CDT
Astronomical Twilight 4:17 AM CDT 10:23 PM CDT
Moon 8:21 PM CDT (7/22) 6:03 AM CDT (7/22)
Length of Visible Light 15h 27m
Length of Day
14h 26m
Full, 100% of the Moon is Illuminated
Jul 22
Full
Jul 22
Full
Jul 29
Last Quarter
Aug 6
New
Aug 14
First Quarter

Hourly Weather History & Observations

Time (CDT) Temp. Heat Index Dew Point Humidity Pressure Visibility Wind Dir Wind Speed Gust Speed Precip Events Conditions
12:58 AM 70.9 °F - 70.9 °F 100% 29.86 in 10.0 mi SE 1.2 mph - N/A   Clear
1:58 AM 70.7 °F - 70.7 °F 100% 29.84 in 10.0 mi SSW 4.6 mph - N/A   Clear
2:58 AM 70.3 °F - 70.3 °F 100% 29.83 in 10.0 mi South 4.6 mph - N/A   Clear
3:58 AM 69.8 °F - 69.8 °F 100% 29.82 in 10.0 mi South 3.5 mph - N/A   Partly Cloudy
4:03 AM 69.8 °F - 69.8 °F 100% 29.82 in 10.0 mi South 3.5 mph - N/A   Partly Cloudy
4:38 AM 68.0 °F - 68.0 °F 100% 29.82 in 10.0 mi SSW 4.6 mph - N/A   Partly Cloudy
4:58 AM 68.7 °F - 68.7 °F 100% 29.82 in 9.0 mi SSW 5.8 mph - N/A   Partly Cloudy
6:58 AM 70.7 °F - 70.7 °F 100% 29.84 in 7.0 mi SSW 4.6 mph - N/A   Partly Cloudy
7:58 AM 74.1 °F - 74.1 °F 100% 29.84 in 10.0 mi South 4.6 mph - N/A   Partly Cloudy
8:58 AM 77.4 °F - 77.4 °F 100% 29.86 in 10.0 mi Calm Calm - N/A   Scattered Clouds
9:56 AM 82.0 °F 88.4 °F 74.7 °F 78% 29.84 in 10.0 mi SW 6.9 mph - N/A   Mostly Cloudy
10:58 AM 86.0 °F 92.2 °F 72.0 °F 63% 29.85 in 10.0 mi SW 16.1 mph - N/A   Scattered Clouds
11:58 AM 86.9 °F 93.3 °F 71.8 °F 61% 29.85 in 10.0 mi SW 10.4 mph - N/A   Scattered Clouds
12:58 PM 88.9 °F 96.1 °F 72.3 °F 58% 29.83 in 10.0 mi SSW 10.4 mph - N/A   Partly Cloudy
1:58 PM 90.1 °F 97.8 °F 72.5 °F 56% 29.83 in 10.0 mi WSW 13.8 mph - N/A   Scattered Clouds
2:58 PM 92.5 °F 100.7 °F 72.3 °F 52% 29.81 in 10.0 mi SW 9.2 mph - N/A   Scattered Clouds
3:58 PM 93.0 °F 101.3 °F 72.5 °F 51% 29.79 in 10.0 mi West 9.2 mph - N/A   Scattered Clouds
4:58 PM 93.4 °F 102.8 °F 73.4 °F 52% 29.78 in 10.0 mi WSW 9.2 mph - N/A   Scattered Clouds
5:58 PM 92.7 °F 99.9 °F 71.8 °F 50% 29.76 in 10.0 mi WSW 12.7 mph - N/A   Partly Cloudy
6:58 PM 91.2 °F 93.3 °F 65.1 °F 42% 29.76 in 10.0 mi WSW 12.7 mph - N/A   Clear
7:58 PM 87.3 °F 90.5 °F 67.5 °F 52% 29.78 in 10.0 mi WSW 8.1 mph - N/A   Clear
8:58 PM 83.5 °F 86.0 °F 66.9 °F 57% 29.78 in 10.0 mi SW 8.1 mph - N/A   Clear
9:58 PM 78.8 °F - 67.5 °F 68% 29.80 in 10.0 mi SSE 3.5 mph - N/A   Clear
10:58 PM 76.5 °F - 68.0 °F 75% 29.82 in 10.0 mi South 6.9 mph - N/A   Clear
11:58 PM 74.8 °F - 70.0 °F 85% 29.83 in 10.0 mi South 10.4 mph - N/A   Clear